Precipitable_Water
0.64 0.64 0.63 0.62 0.61 0.61 0.60 0.60 0.59 0.59 0.59 0.58 0.57 0.55 0.53 0.52 0.51 0.50 0.50 0.50 0.50 0.51 0.50 0.49 0.49 0.48 0.48 0.48 0.47 0.45 0.45 0.36 0.28 0.30 0.32 0.26 0.42 0.46 0.40 0.39 0.40 0.41 0.45 0.57 0.60 0.67 0.67 0.72 0.81 1.05 1.09 1.14 1.28 1.22 1.37 1.44 1.50 1.38 1.16 1.07 1.04 1.16 1.15 1.26 1.21 1.36 1.50 1.39 1.49 1.50 1.53 1.37 1.22 1.40 1.41 1.47 1.30 1.22 1.18 1.17 1.15 1.12 1.09 1.12 1.17 1.24 1.21 1.23
0.63 0.63 0.62 0.61 0.61 0.60 0.59 0.59 0.59 0.58 0.57 0.57 0.56 0.55 0.54 0.53 0.51 0.49 0.49 0.49 0.49 0.49 0.50 0.51 0.48 0.46 0.46 0.45 0.47 0.47 0.43 0.36 0.27 0.27 0.25 0.44 0.46 0.36 0.33 0.37 0.34 0.35 0.41 0.52 0.56 0.64 0.70 0.75 0.85 0.88 0.91 1.01 1.35 1.17 1.43 1.33 1.44 1.21 1.20 1.11 1.02 1.20 1.30 1.42 1.42 1.44 1.45 1.43 1.53 1.58 1.57 1.42 1.29 1.38 1.40 1.18 1.10 1.11 1.04 1.03 1.07 1.09 1.15 1.13 1.18 1.21 1.17 1.17
0.63 0.62 0.62 0.61 0.60 0.59 0.58 0.58 0.58 0.57 0.57 0.56 0.55 0.54 0.53 0.52 0.51 0.49 0.48 0.48 0.48 0.49 0.50 0.49 0.49 0.47 0.43 0.44 0.44 0.45 0.44 0.35 0.37 0.28 0.41 0.46 0.42 0.33 0.31 0.29 0.29 0.30 0.35 0.47 0.62 0.73 0.77 0.85 0.80 0.75 0.83 0.94 1.24 1.17 1.32 1.15 1.26 1.29 1.16 1.00 1.21 1.32 1.38 1.47 1.49 1.44 1.61 1.54 1.51 1.55 1.53 1.49 1.40 1.39 1.49 1.18 1.05 1.08 1.00 0.98 1.03 1.03 0.96 1.01 1.09 1.14 1.16 1.16
0.62 0.62 0.61 0.60 0.60 0.59 0.58 0.57 0.57 0.56 0.56 0.55 0.54 0.54 0.53 0.51 0.49 0.48 0.47 0.47 0.48 0.49 0.49 0.48 0.47 0.48 0.46 0.41 0.41 0.45 0.44 0.40 0.33 0.44 0.51 0.51 0.39 0.35 0.32 0.33 0.30 0.30 0.32 0.47 0.71 0.82 0.88 0.85 0.78 0.72 0.76 0.84 1.10 1.20 1.03 1.25 1.07 1.24 1.12 1.08 1.16 1.40 1.31 1.52 1.55 1.53 1.63 1.61 1.56 1.56 1.52 1.41 1.43 1.45 1.40 1.25 1.06 1.01 1.05 1.10 1.02 0.93 0.91 0.97 1.03 1.08 1.14 1.14
0.63 0.62 0.60 0.59 0.59 0.58 0.57 0.56 0.55 0.55 0.54 0.54 0.53 0.53 0.51 0.50 0.47 0.47 0.46 0.47 0.47 0.47 0.47 0.47 0.46 0.47 0.46 0.44 0.37 0.42 0.38 0.25 0.51 0.68 0.63 0.48 0.40 0.33 0.31 0.32 0.31 0.27 0.30 0.53 0.71 0.85 0.84 0.75 0.74 0.73 0.72 0.77 0.94 1.08 1.03 1.06 1.20 1.14 1.11 1.13 1.22 1.35 1.24 1.52 1.66 1.67 1.61 1.65 1.61 1.57 1.40 1.35 1.58 1.50 1.44 1.26 1.06 0.96 1.06 1.13 1.09 1.00 0.97 0.96 0.96 1.05 1.12 1.11
0.62 0.61 0.59 0.58 0.58 0.57 0.56 0.55 0.54 0.54 0.53 0.52 0.52 0.51 0.50 0.47 0.46 0.46 0.47 0.47 0.46 0.46 0.45 0.45 0.46 0.45 0.46 0.42 0.38 0.36 0.28 0.19 0.38 0.59 0.62 0.52 0.44 0.41 0.32 0.31 0.28 0.27 0.33 0.52 0.65 0.83 0.75 0.69 0.69 0.65 0.65 0.70 0.83 0.88 1.06 1.08 1.26 0.98 1.15 1.30 1.25 1.31 1.23 1.56 1.65 1.71 1.68 1.56 1.53 1.51 1.53 1.50 1.39 1.35 1.50 1.35 1.26 1.21 1.25 1.16 1.09 1.06 1.04 1.00 1.02 1.05 1.09 1.12
0.61 0.59 0.59 0.58 0.58 0.58 0.57 0.55 0.53 0.52 0.52 0.51 0.51 0.50 0.48 0.47 0.46 0.46 0.46 0.45 0.44 0.44 0.43 0.43 0.45 0.47 0.44 0.41 0.41 0.31 0.22 0.30 0.50 0.72 0.55 0.44 0.49 0.45 0.32 0.25 0.27 0.28 0.39 0.50 0.64 0.77 0.68 0.63 0.64 0.63 0.61 0.65 0.74 0.84 1.02 1.08 1.19 1.04 1.05 1.26 1.29 1.32 1.29 1.55 1.54 1.68 1.71 1.64 1.57 1.67 1.63 1.39 1.39 1.26 1.46 1.37 1.47 1.44 1.28 1.18 1.12 1.09 1.08 1.02 0.98 1.06 1.08 1.10
0.60 0.59 0.58 0.59 0.59 0.60 0.60 0.58 0.55 0.53 0.51 0.50 0.49 0.48 0.48 0.48 0.47 0.46 0.46 0.47 0.46 0.45 0.45 0.43 0.44 0.43 0.44 0.34 0.26 0.32 0.26 0.33 0.79 0.83 0.61 0.50 0.50 0.44 0.26 0.22 0.23 0.27 0.39 0.45 0.65 0.71 0.68 0.59 0.60 0.64 0.60 0.60 0.70 0.83 1.00 1.04 1.11 1.02 1.02 1.18 1.32 1.36 1.40 1.52 1.57 1.56 1.65 1.65 1.72 1.72 1.50 1.40 1.47 1.40 1.44 1.35 1.53 1.39 1.28 1.17 1.10 1.07 1.03 0.99 0.99 1.05 1.08 1.09
0.58 0.57 0.57 0.59 0.60 0.60 0.59 0.59 0.58 0.56 0.53 0.50 0.49 0.49 0.48 0.48 0.48 0.48 0.50 0.50 0.50 0.49 0.47 0.48 0.46 0.43 0.44 0.36 0.21 0.21 0.35 0.54 0.60 0.74 0.63 0.47 0.47 0.36 0.20 0.20 0.23 0.25 0.38 0.54 0.66 0.73 0.67 0.61 0.61 0.63 0.55 0.63 0.72 0.75 0.97 0.93 0.95 1.14 1.09 1.29 1.28 1.29 1.41 1.58 1.62 1.64 1.65 1.67 1.69 1.52 1.40 1.50 1.55 1.59 1.44 1.48 1.47 1.33 1.24 1.14 1.09 1.04 0.98 0.98 1.02 1.04 1.05 1.08
0.58 0.56 0.57 0.59 0.60 0.60 0.59 0.60 0.59 0.58 0.57 0.56 0.56 0.54 0.54 0.52 0.52 0.51 0.50 0.50 0.50 0.49 0.49 0.50 0.51 0.46 0.34 0.33 0.30 0.24 0.48 0.53 0.51 0.69 0.67 0.56 0.41 0.30 0.21 0.24 0.21 0.27 0.36 0.51 0.65 0.68 0.65 0.63 0.55 0.59 0.61 0.62 0.65 0.77 0.97 0.97 0.99 1.08 1.14 1.11 1.30 1.38 1.45 1.54 1.50 1.58 1.64 1.66 1.64 1.42 1.39 1.42 1.54 1.45 1.12 1.47 1.37 1.25 1.15 1.10 1.08 1.02 0.98 1.01 1.04 1.01 1.04 1.11
0.57 0.56 0.57 0.59 0.59 0.59 0.59 0.59 0.59 0.59 0.58 0.56 0.56 0.56 0.54 0.54 0.54 0.53 0.52 0.51 0.49 0.49 0.49 0.51 0.53 0.46 0.29 0.34 0.22 0.28 0.37 0.32 0.37 0.63 0.61 0.48 0.38 0.29 0.23 0.25 0.23 0.26 0.35 0.50 0.54 0.67 0.73 0.66 0.60 0.53 0.53 0.53 0.68 0.83 0.88 1.03 1.15 1.22 1.22 1.19 1.25 1.39 1.54 1.54 1.55 1.54 1.60 1.53 1.63 1.52 1.40 1.48 1.45 1.44 1.26 1.32 1.28 1.20 1.08 1.06 1.02 1.03 1.00 1.00 1.02 1.01 1.02 1.09
0.58 0.56 0.56 0.58 0.59 0.58 0.59 0.58 0.57 0.56 0.56 0.54 0.52 0.51 0.51 0.51 0.51 0.50 0.50 0.48 0.48 0.49 0.51 0.52 0.52 0.47 0.36 0.28 0.25 0.35 0.30 0.27 0.31 0.66 0.60 0.40 0.37 0.34 0.27 0.29 0.24 0.23 0.34 0.44 0.47 0.58 0.69 0.67 0.64 0.53 0.44 0.71 0.63 0.82 0.84 1.00 1.10 1.19 1.19 0.89 1.15 1.30 1.30 1.47 1.45 1.50 1.61 1.40 1.64 1.60 1.37 1.26 1.28 1.21 1.33 1.30 1.23 1.16 1.08 1.05 1.02 1.01 1.02 1.02 1.00 0.99 1.02 1.05
0.58 0.56 0.55 0.57 0.58 0.57 0.57 0.57 0.56 0.55 0.54 0.52 0.52 0.50 0.50 0.50 0.51 0.51 0.51 0.48 0.47 0.49 0.51 0.52 0.50 0.51 0.35 0.33 0.38 0.29 0.24 0.24 0.30 0.44 0.58 0.45 0.47 0.42 0.41 0.41 0.32 0.25 0.36 0.44 0.46 0.50 0.60 0.66 0.63 0.51 0.50 0.51 0.60 0.62 0.90 1.00 0.98 1.10 1.13 0.92 1.05 1.12 1.15 1.36 1.49 1.54 1.51 1.57 1.60 1.47 0.95 1.10 1.30 1.35 1.39 1.35 1.23 1.14 1.06 1.06 1.06 1.06 1.04 1.01 1.01 0.98 1.04 1.05
0.58 0.57 0.55 0.57 0.58 0.58 0.57 0.56 0.57 0.56 0.55 0.55 0.55 0.54 0.54 0.53 0.53 0.53 0.51 0.50 0.48 0.48 0.49 0.49 0.48 0.43 0.39 0.33 0.36 0.26 0.22 0.15 0.44 0.42 0.50 0.56 0.51 0.49 0.53 0.47 0.39 0.31 0.39 0.45 0.54 0.57 0.54 0.62 0.59 0.53 0.55 0.52 0.59 0.76 0.75 0.86 1.02 0.80 1.06 1.01 0.84 0.83 0.93 1.38 1.42 1.50 1.38 1.63 1.59 1.50 0.96 1.08 1.32 1.38 1.43 1.37 1.32 1.13 1.00 1.05 1.07 1.06 1.05 1.00 1.00 0.98 1.01 1.04
0.58 0.57 0.56 0.57 0.57 0.56 0.56 0.56 0.57 0.57 0.57 0.56 0.57 0.57 0.57 0.55 0.54 0.53 0.52 0.52 0.52 0.49 0.48 0.50 0.49 0.35 0.46 0.59 0.40 0.24 0.12 0.21 0.30 0.51 0.56 0.48 0.50 0.46 0.43 0.44 0.36 0.34 0.44 0.52 0.57 0.58 0.57 0.58 0.58 0.51 0.48 0.59 0.64 0.60 0.62 0.73 0.81 0.80 0.82 0.76 0.87 0.87 1.01 1.23 1.44 1.45 1.23 1.45 1.60 1.40 1.03 1.08 1.26 1.39 1.48 1.40 1.36 1.18 1.03 1.08 1.06 1.06 1.11 1.02 0.98 1.00 1.01 1.02
0.57 0.57 0.57 0.56 0.56 0.54 0.55 0.57 0.57 0.58 0.58 0.58 0.59 0.61 0.63 0.62 0.57 0.54 0.59 0.60 0.59 0.54 0.49 0.49 0.56 0.56 0.44 0.44 0.27 0.26 0.25 0.23 0.40 0.55 0.47 0.48 0.44 0.39 0.42 0.41 0.41 0.42 0.43 0.48 0.56 0.58 0.57 0.56 0.49 0.48 0.48 0.52 0.51 0.52 0.64 0.65 0.69 0.75 0.64 0.70 0.80 0.89 1.01 1.07 1.30 1.42 1.44 1.41 1.43 1.36 1.12 1.22 1.26 1.44 1.49 1.47 1.40 1.21 1.08 1.12 1.11 1.07 1.11 1.07 0.99 0.99 1.01 0.99
0.56 0.56 0.57 0.56 0.55 0.55 0.56 0.57 0.57 0.58 0.59 0.59 0.61 0.65 0.68 0.69 0.63 0.58 0.60 0.65 0.68 0.68 0.57 0.56 0.64 0.64 0.42 0.26 0.24 0.35 0.42 0.52 0.58 0.51 0.44 0.52 0.45 0.44 0.40 0.36 0.33 0.32 0.35 0.42 0.47 0.46 0.52 0.44 0.47 0.45 0.48 0.44 0.45 0.53 0.55 0.56 0.59 0.65 0.68 0.61 0.84 0.82 0.98 0.87 1.21 1.37 1.41 1.32 1.21 1.43 1.28 1.26 1.31 1.43 1.47 1.47 1.44 1.24 1.08 1.11 1.15 1.12 1.12 1.11 1.03 1.02 1.00 0.99
0.56 0.56 0.55 0.56 0.54 0.54 0.57 0.56 0.57 0.58 0.59 0.60 0.62 0.63 0.68 0.80 0.76 0.69 0.65 0.63 0.79 0.83 0.71 0.62 0.60 0.52 0.40 0.36 0.29 0.44 0.53 0.48 0.48 0.52 0.44 0.51 0.57 0.46 0.39 0.34 0.35 0.32 0.33 0.31 0.36 0.30 0.40 0.36 0.39 0.33 0.37 0.39 0.43 0.47 0.46 0.48 0.56 0.61 0.65 0.63 0.70 0.91 0.95 0.98 0.97 1.17 1.28 1.30 1.18 1.26 1.22 1.23 1.33 1.40 1.44 1.45 1.49 1.35 1.13 1.12 1.18 1.19 1.10 1.13 1.03 1.09 1.04 1.01
0.55 0.56 0.55 0.54 0.54 0.55 0.55 0.56 0.56 0.57 0.58 0.62 0.67 0.72 0.79 0.90 0.85 0.76 0.57 0.65 0.61 0.65 0.55 0.43 0.38 0.34 0.25 0.31 0.33 0.36 0.36 0.48 0.58 0.41 0.43 0.43 0.47 0.43 0.37 0.35 0.32 0.30 0.24 0.21 0.23 0.21 0.29 0.32 0.35 0.30 0.29 0.32 0.36 0.46 0.49 0.54 0.67 0.69 0.73 0.78 0.85 0.75 0.80 0.96 1.14 1.29 1.24 1.17 1.18 1.16 1.10 1.20 1.33 1.37 1.44 1.46 1.45 1.38 1.29 1.15 1.16 1.21 1.22 1.16 1.06 1.11 1.08 1.03
0.55 0.54 0.53 0.53 0.53 0.55 0.55 0.55 0.55 0.56 0.58 0.57 0.61 0.69 0.72 0.64 0.68 0.63 0.57 0.63 0.54 0.42 0.31 0.36 0.38 0.30 0.39 0.40 0.41 0.48 0.46 0.27 0.44 0.43 0.49 0.49 0.39 0.42 0.35 0.32 0.28 0.27 0.21 0.15 0.18 0.16 0.26 0.24 0.25 0.25 0.28 0.31 0.34 0.45 0.55 0.58 0.65 0.70 0.68 0.70 0.72 0.84 0.93 1.05 1.18 1.27 1.32 1.14 1.11 1.15 1.23 1.23 1.30 1.34 1.47 1.47 1.43 1.42 1.39 1.22 1.15 1.15 1.20 1.15 1.08 1.10 1.10 1.07
0.54 0.54 0.52 0.52 0.52 0.53 0.55 0.55 0.55 0.56 0.59 0.57 0.59 0.53 0.49 0.32 0.35 0.34 0.44 0.49 0.57 0.44 0.33 0.36 0.30 0.20 0.31 0.38 0.33 0.30 0.29 0.33 0.50 0.51 0.52 0.51 0.51 0.43 0.40 0.36 0.27 0.22 0.20 0.18 0.16 0.18 0.21 0.22 0.23 0.27 0.28 0.32 0.37 0.44 0.55 0.61 0.64 0.66 0.71 0.70 0.86 0.91 0.86 1.05 1.09 1.29 1.33 1.09 1.09 1.24 1.24 1.25 1.27 1.40 1.44 1.43 1.41 1.35 1.38 1.31 1.23 1.18 1.22 1.21 1.12 1.09 1.15 1.11
0.51 0.53 0.52 0.51 0.52 0.53 0.55 0.55 0.55 0.57 0.58 0.58 0.54 0.50 0.56 0.40 0.47 0.53 0.52 0.42 0.45 0.41 0.42 0.41 0.44 0.42 0.45 0.36 0.36 0.36 0.30 0.36 0.37 0.55 0.52 0.34 0.47 0.35 0.43 0.34 0.29 0.22 0.21 0.19 0.18 0.16 0.15 0.18 0.23 0.27 0.32 0.32 0.36 0.41 0.50 0.59 0.64 0.68 0.74 0.67 0.74 0.95 1.07 1.13 1.17 1.30 1.33 1.15 1.05 1.17 1.20 1.21 1.29 1.37 1.47 1.43 1.38 1.41 1.44 1.42 1.34 1.26 1.26 1.24 1.18 1.13 1.21 1.14
0.50 0.52 0.52 0.50 0.51 0.54 0.53 0.55 0.55 0.56 0.56 0.55 0.49 0.57 0.47 0.48 0.58 0.63 0.61 0.49 0.50 0.48 0.41 0.37 0.41 0.37 0.47 0.43 0.43 0.26 0.35 0.43 0.41 0.49 0.49 0.36 0.40 0.41 0.43 0.31 0.34 0.28 0.22 0.19 0.16 0.16 0.14 0.16 0.21 0.26 0.30 0.29 0.31 0.36 0.44 0.54 0.61 0.65 0.77 0.64 0.71 0.89 0.86 0.83 0.97 1.23 1.27 1.15 1.07 1.15 1.12 1.26 1.33 1.40 1.41 1.49 1.39 1.44 1.51 1.51 1.53 1.53 1.35 1.28 1.22 1.23 1.25 1.17
0.49 0.51 0.52 0.50 0.51 0.52 0.56 0.54 0.56 0.54 0.52 0.51 0.54 0.54 0.51 0.58 0.59 0.61 0.57 0.50 0.50 0.35 0.32 0.33 0.36 0.34 0.34 0.32 0.33 0.37 0.41 0.51 0.53 0.49 0.52 0.32 0.37 0.43 0.39 0.37 0.36 0.32 0.24 0.19 0.17 0.17 0.17 0.19 0.20 0.22 0.27 0.27 0.27 0.35 0.48 0.53 0.51 0.56 0.62 0.68 0.71 0.79 0.89 0.83 0.87 1.11 1.24 1.21 1.21 1.15 1.07 1.13 1.22 1.20 1.29 1.44 1.60 1.50 1.50 1.46 1.54 1.53 1.50 1.51 1.38 1.32 1.35 1.28
0.48 0.51 0.51 0.50 0.50 0.56 0.55 0.57 0.48 0.48 0.53 0.55 0.55 0.59 0.53 0.56 0.61 0.65 0.56 0.51 0.51 0.39 0.36 0.31 0.30 0.37 0.38 0.35 0.43 0.41 0.52 0.53 0.54 0.66 0.51 0.36 0.45 0.37 0.32 0.36 0.35 0.33 0.31 0.23 0.18 0.18 0.19 0.22 0.22 0.19 0.24 0.27 0.27 0.35 0.49 0.52 0.47 0.52 0.62 0.60 0.68 0.76 0.76 0.85 0.87 0.95 0.96 0.91 1.03 1.08 0.82 0.83 1.10 1.18 1.19 1.34 1.39 1.40 1.50 1.42 1.45 1.50 1.51 1.46 1.39 1.35 1.38 1.36
0.49 0.50 0.51 0.49 0.50 0.54 0.57 0.45 0.51 0.52 0.49 0.46 0.50 0.50 0.52 0.55 0.67 0.69 0.53 0.41 0.34 0.28 0.34 0.23 0.34 0.37 0.51 0.37 0.38 0.42 0.43 0.42 0.60 0.63 0.55 0.41 0.48 0.42 0.35 0.26 0.30 0.32 0.32 0.29 0.21 0.19 0.20 0.26 0.24 0.20 0.20 0.26 0.28 0.34 0.54 0.57 0.54 0.52 0.54 0.53 0.59 0.68 0.80 0.92 0.90 0.93 0.76 0.73 0.99 1.09 0.76 0.74 1.06 1.03 1.13 1.24 1.27 1.30 1.43 1.41 1.42 1.49 1.49 1.48 1.41 1.39 1.36 1.37
0.48 0.50 0.50 0.50 0.49 0.53 0.38 0.34 0.49 0.48 0.45 0.46 0.49 0.49 0.51 0.56 0.68 0.60 0.51 0.37 0.26 0.24 0.20 0.26 0.23 0.27 0.34 0.37 0.40 0.45 0.36 0.39 0.56 0.63 0.42 0.44 0.45 0.48 0.36 0.34 0.29 0.34 0.35 0.30 0.25 0.19 0.21 0.23 0.23 0.23 0.21 0.25 0.30 0.37 0.57 0.60 0.50 0.46 0.54 0.48 0.45 0.59 0.77 0.83 0.87 0.84 0.82 0.96 1.02 1.05 0.96 0.80 0.77 0.98 1.13 1.18 1.18 1.21 1.26 1.32 1.40 1.46 1.48 1.48 1.47 1.42 1.40 1.37
0.49 0.49 0.50 0.49 0.49 0.52 0.39 0.44 0.40 0.38 0.43 0.48 0.50 0.46 0.54 0.61 0.61 0.69 0.57 0.31 0.18 0.26 0.22 0.22 0.22 0.31 0.35 0.37 0.28 0.38 0.45 0.50 0.39 0.47 0.40 0.51 0.47 0.44 0.38 0.41 0.33 0.31 0.34 0.32 0.23 0.25 0.21 0.22 0.22 0.24 0.32 0.36 0.38 0.47 0.53 0.55 0.48 0.46 0.49 0.51 0.46 0.57 0.60 0.78 0.76 0.78 0.88 0.83 0.77 0.88 1.01 0.81 0.74 0.92 1.19 1.26 1.08 1.10 1.15 1.23 1.30 1.40 1.44 1.47 1.46 1.44 1.43 1.46
0.48 0.50 0.48 0.48 0.46 0.51 0.50 0.42 0.43 0.37 0.42 0.47 0.47 0.50 0.50 0.58 0.58 0.51 0.41 0.28 0.23 0.21 0.34 0.23 0.31 0.29 0.28 0.29 0.33 0.31 0.38 0.46 0.43 0.51 0.49 0.51 0.50 0.47 0.39 0.38 0.44 0.34 0.33 0.31 0.27 0.26 0.22 0.22 0.26 0.32 0.36 0.44 0.50 0.52 0.51 0.49 0.46 0.48 0.51 0.52 0.50 0.54 0.66 0.65 0.70 0.69 0.81 0.73 0.64 0.74 0.89 0.74 0.73 0.92 0.99 1.19 1.13 1.06 1.08 1.19 1.27 1.33 1.36 1.38 1.42 1.49 1.51 1.48
0.49 0.48 0.49 0.47 0.43 0.45 0.51 0.56 0.52 0.51 0.51 0.51 0.51 0.49 0.55 0.58 0.57 0.47 0.38 0.16 0.18 0.22 0.28 0.25 0.25 0.19 0.25 0.23 0.30 0.33 0.36 0.41 0.42 0.48 0.54 0.42 0.44 0.39 0.42 0.50 0.45 0.36 0.32 0.34 0.29 0.30 0.31 0.24 0.39 0.46 0.42 0.45 0.48 0.51 0.48 0.48 0.46 0.51 0.45 0.48 0.47 0.45 0.44 0.50 0.56 0.62 0.60 0.53 0.56 0.73 0.80 0.80 0.66 0.85 0.91 0.92 0.94 1.07 1.14 1.19 1.26 1.32 1.37 1.39 1.42 1.49 1.52 1.49
0.49 0.49 0.48 0.48 0.33 0.45 0.49 0.44 0.55 0.59 0.57 0.55 0.49 0.50 0.54 0.57 0.48 0.33 0.27 0.20 0.22 0.29 0.25 0.24 0.21 0.22 0.21 0.22 0.24 0.32 0.31 0.39 0.43 0.46 0.47 0.40 0.48 0.35 0.42 0.40 0.43 0.38 0.38 0.31 0.32 0.31 0.33 0.33 0.30 0.43 0.47 0.46 0.45 0.39 0.41 0.47 0.48 0.45 0.44 0.42 0.43 0.41 0.42 0.42 0.45 0.52 0.48 0.47 0.56 0.68 0.73 0.74 0.61 0.80 0.97 1.04 1.16 1.19 1.16 1.11 1.15 1.22 1.29 1.38 1.42 1.47 1.57 1.60
0.48 0.48 0.49 0.42 0.41 0.46 0.31 0.35 0.45 0.50 0.54 0.49 0.48 0.48 0.52 0.45 0.49 0.23 0.17 0.24 0.21 0.21 0.19 0.16 0.21 0.19 0.20 0.17 0.28 0.30 0.30 0.30 0.37 0.42 0.46 0.44 0.43 0.31 0.33 0.34 0.39 0.30 0.30 0.29 0.29 0.32 0.30 0.34 0.43 0.42 0.42 0.41 0.39 0.36 0.36 0.42 0.38 0.41 0.44 0.43 0.37 0.36 0.36 0.31 0.39 0.38 0.42 0.42 0.54 0.64 0.67 0.69 0.67 0.81 0.90 1.02 1.14 1.19 1.23 1.19 1.19 1.24 1.29 1.39 1.44 1.45 1.53 1.58
0.48 0.47 0.47 0.42 0.43 0.36 0.38 0.40 0.46 0.51 0.52 0.49 0.44 0.52 0.46 0.40 0.26 0.18 0.20 0.21 0.18 0.19 0.18 0.17 0.16 0.24 0.24 0.24 0.24 0.26 0.27 0.29 0.33 0.35 0.36 0.46 0.43 0.41 0.39 0.36 0.43 0.37 0.32 0.38 0.33 0.28 0.28 0.35 0.41 0.44 0.45 0.39 0.38 0.29 0.32 0.32 0.39 0.42 0.41 0.39 0.36 0.32 0.30 0.28 0.31 0.36 0.38 0.49 0.53 0.57 0.65 0.57 0.81 0.85 0.99 1.01 1.13 1.19 1.25 1.29 1.29 1.33 1.37 1.40 1.45 1.45 1.48 1.53
0.47 0.48 0.38 0.39 0.38 0.38 0.41 0.46 0.51 0.53 0.44 0.45 0.47 0.45 0.46 0.35 0.22 0.23 0.22 0.20 0.19 0.22 0.27 0.22 0.23 0.28 0.27 0.25 0.27 0.28 0.24 0.30 0.29 0.36 0.36 0.43 0.38 0.40 0.40 0.39 0.41 0.39 0.38 0.40 0.32 0.28 0.22 0.24 0.33 0.42 0.39 0.42 0.34 0.34 0.30 0.32 0.36 0.34 0.42 0.38 0.37 0.35 0.30 0.29 0.30 0.30 0.34 0.39 0.45 0.52 0.46 0.47 0.57 0.71 1.02 1.10 1.15 1.24 1.31 1.36 1.39 1.43 1.49 1.49 1.52 1.53 1.57 1.61
0.48 0.43 0.42 0.39 0.38 0.41 0.45 0.44 0.45 0.48 0.46 0.42 0.48 0.49 0.35 0.28 0.23 0.18 0.18 0.16 0.21 0.20 0.26 0.28 0.27 0.28 0.27 0.28 0.27 0.32 0.27 0.30 0.39 0.34 0.36 0.35 0.38 0.42 0.42 0.41 0.41 0.40 0.40 0.34 0.37 0.36 0.28 0.27 0.35 0.44 0.45 0.45 0.35 0.37 0.38 0.36 0.31 0.36 0.38 0.40 0.36 0.34 0.40 0.35 0.36 0.38 0.38 0.40 0.37 0.40 0.46 0.64 0.71 0.99 1.16 1.15 1.12 1.16 1.24 1.31 1.38 1.37 1.45 1.50 1.45 1.46 1.53 1.55
0.42 0.39 0.38 0.33 0.35 0.42 0.48 0.48 0.45 0.48 0.46 0.41 0.44 0.42 0.32 0.22 0.17 0.18 0.21 0.18 0.22 0.20 0.22 0.29 0.31 0.27 0.27 0.28 0.31 0.29 0.37 0.28 0.39 0.35 0.35 0.42 0.48 0.42 0.44 0.41 0.39 0.40 0.36 0.35 0.43 0.32 0.32 0.26 0.32 0.44 0.46 0.40 0.41 0.39 0.39 0.41 0.28 0.34 0.34 0.30 0.31 0.38 0.42 0.37 0.35 0.39 0.42 0.38 0.34 0.48 0.67 0.64 0.85 0.99 1.11 1.19 1.20 1.12 1.14 1.20 1.26 1.38 1.47 1.51 1.47 1.55 1.64 1.60
0.48 0.62 0.37 0.35 0.43 0.56 0.61 0.54 0.54 0.50 0.47 0.44 0.43 0.40 0.25 0.25 0.23 0.21 0.21 0.18 0.18 0.17 0.25 0.23 0.30 0.25 0.26 0.27 0.31 0.33 0.36 0.38 0.40 0.38 0.38 0.44 0.41 0.42 0.39 0.40 0.41 0.38 0.41 0.40 0.39 0.43 0.34 0.35 0.39 0.38 0.40 0.43 0.46 0.37 0.40 0.40 0.37 0.35 0.30 0.32 0.38 0.42 0.43 0.36 0.30 0.32 0.32 0.32 0.37 0.42 0.42 0.54 0.57 0.59 1.02 1.14 1.11 1.04 1.07 1.17 1.22 1.32 1.46 1.46 1.49 1.53 1.55 1.61
0.47 0.58 0.54 0.57 0.55 0.53 0.49 0.56 0.50 0.47 0.45 0.47 0.46 0.33 0.26 0.24 0.24 0.20 0.20 0.22 0.22 0.26 0.24 0.27 0.26 0.21 0.24 0.25 0.27 0.30 0.35 0.35 0.36 0.39 0.37 0.40 0.39 0.45 0.40 0.39 0.42 0.40 0.40 0.44 0.44 0.44 0.42 0.33 0.35 0.36 0.42 0.45 0.46 0.39 0.33 0.36 0.38 0.34 0.31 0.36 0.28 0.24 0.21 0.31 0.30 0.25 0.27 0.28 0.32 0.39 0.45 0.64 0.64 0.66 0.83 0.88 1.00 1.06 1.20 1.29 1.31 1.30 1.35 1.42 1.47 1.53 1.61 1.64
0.47 0.56 0.51 0.53 0.50 0.44 0.52 0.50 0.51 0.43 0.43 0.40 0.40 0.34 0.32 0.17 0.19 0.20 0.20 0.14 0.25 0.20 0.25 0.25 0.22 0.29 0.22 0.25 0.28 0.28 0.29 0.28 0.32 0.39 0.35 0.40 0.36 0.44 0.42 0.42 0.41 0.40 0.42 0.42 0.40 0.44 0.44 0.35 0.38 0.39 0.41 0.44 0.40 0.39 0.26 0.25 0.29 0.33 0.34 0.32 0.31 0.24 0.23 0.23 0.25 0.29 0.31 0.30 0.30 0.33 0.42 0.50 0.66 0.75 0.92 0.93 1.04 1.06 1.14 1.18 1.27 1.31 1.32 1.37 1.41 1.50 1.57 1.60
0.52 0.54 0.60 0.55 0.54 0.49 0.46 0.49 0.41 0.46 0.38 0.37 0.41 0.27 0.23 0.23 0.27 0.24 0.21 0.15 0.23 0.22 0.23 0.23 0.28 0.27 0.31 0.29 0.25 0.27 0.28 0.28 0.32 0.32 0.35 0.38 0.34 0.44 0.41 0.43 0.41 0.43 0.44 0.43 0.41 0.45 0.37 0.44 0.36 0.41 0.40 0.43 0.36 0.37 0.31 0.28 0.22 0.26 0.27 0.28 0.28 0.23 0.25 0.26 0.28 0.27 0.28 0.29 0.32 0.33 0.35 0.55 0.74 0.95 0.96 1.03 1.16 1.21 1.24 1.20 1.18 1.29 1.35 1.41 1.44 1.52 1.55 1.59
0.69 0.58 0.54 0.64 0.59 0.55 0.45 0.41 0.37 0.39 0.41 0.42 0.37 0.20 0.18 0.21 0.23 0.22 0.22 0.20 0.21 0.26 0.21 0.24 0.26 0.26 0.27 0.25 0.33 0.31 0.27 0.26 0.26 0.30 0.32 0.33 0.33 0.36 0.43 0.41 0.41 0.40 0.43 0.41 0.39 0.41 0.37 0.41 0.38 0.41 0.37 0.33 0.34 0.38 0.38 0.34 0.28 0.25 0.25 0.25 0.25 0.26 0.19 0.19 0.19 0.28 0.28 0.27 0.31 0.35 0.36 0.54 0.79 0.99 1.03 1.08 1.18 1.20 1.21 1.26 1.25 1.34 1.39 1.40 1.45 1.50 1.52 1.55
0.61 0.56 0.54 0.66 0.63 0.56 0.34 0.33 0.35 0.43 0.37 0.33 0.32 0.25 0.23 0.24 0.19 0.21 0.19 0.27 0.18 0.22 0.27 0.24 0.30 0.24 0.30 0.31 0.32 0.28 0.27 0.29 0.30 0.30 0.29 0.31 0.35 0.35 0.38 0.42 0.41 0.40 0.39 0.40 0.38 0.48 0.44 0.46 0.43 0.41 0.40 0.38 0.39 0.38 0.38 0.38 0.32 0.27 0.25 0.24 0.27 0.25 0.23 0.22 0.17 0.22 0.26 0.27 0.34 0.38 0.36 0.51 0.93 1.03 1.11 1.08 1.07 1.12 1.15 1.26 1.22 1.36 1.38 1.39 1.47 1.51 1.53 1.59
0.50 0.54 0.67 0.66 0.63 0.52 0.34 0.35 0.46 0.41 0.26 0.28 0.30 0.30 0.27 0.20 0.15 0.21 0.22 0.22 0.22 0.17 0.22 0.29 0.29 0.25 0.36 0.29 0.29 0.27 0.28 0.29 0.29 0.31 0.32 0.31 0.33 0.35 0.38 0.38 0.39 0.37 0.40 0.40 0.38 0.50 0.46 0.40 0.41 0.42 0.47 0.48 0.45 0.47 0.45 0.36 0.32 0.27 0.25 0.24 0.25 0.28 0.27 0.25 0.21 0.24 0.25 0.27 0.26 0.29 0.29 0.62 0.89 1.02 1.13 1.11 1.13 1.13 1.19 1.25 1.26 1.30 1.34 1.40 1.44 1.51 1.55 1.58
0.54 0.62 0.61 0.65 0.63 0.51 0.32 0.32 0.37 0.35 0.36 0.32 0.27 0.25 0.21 0.22 0.20 0.23 0.19 0.26 0.20 0.22 0.21 0.22 0.30 0.30 0.24 0.30 0.29 0.30 0.34 0.24 0.33 0.33 0.31 0.33 0.34 0.36 0.35 0.34 0.32 0.34 0.35 0.45 0.38 0.49 0.40 0.50 0.41 0.39 0.38 0.41 0.42 0.39 0.38 0.33 0.31 0.28 0.26 0.25 0.23 0.23 0.25 0.25 0.23 0.25 0.21 0.23 0.23 0.26 0.25 0.51 0.85 1.18 1.20 1.12 1.01 1.03 1.12 1.24 1.31 1.30 1.32 1.37 1.43 1.45 1.51 1.57
0.60 0.69 0.67 0.57 0.44 0.40 0.29 0.40 0.36 0.35 0.36 0.32 0.31 0.28 0.24 0.20 0.19 0.18 0.18 0.20 0.15 0.18 0.19 0.25 0.28 0.28 0.25 0.30 0.28 0.30 0.30 0.27 0.28 0.34 0.34 0.36 0.32 0.34 0.35 0.33 0.30 0.35 0.46 0.46 0.41 0.46 0.39 0.45 0.44 0.37 0.36 0.34 0.30 0.28 0.31 0.27 0.24 0.25 0.25 0.26 0.26 0.24 0.20 0.21 0.18 0.22 0.19 0.22 0.26 0.27 0.56 0.72 0.96 1.09 1.09 1.16 1.15 1.04 1.13 1.21 1.35 1.37 1.38 1.38 1.45 1.42 1.44 1.58
0.44 0.42 0.49 0.46 0.45 0.35 0.30 0.37 0.36 0.35 0.32 0.31 0.27 0.26 0.22 0.22 0.28 0.28 0.16 0.17 0.21 0.17 0.17 0.17 0.20 0.24 0.21 0.25 0.28 0.30 0.35 0.37 0.26 0.36 0.41 0.37 0.37 0.39 0.37 0.33 0.33 0.32 0.36 0.33 0.35 0.38 0.40 0.44 0.45 0.47 0.45 0.44 0.45 0.46 0.50 0.46 0.35 0.27 0.27 0.30 0.30 0.28 0.24 0.22 0.24 0.24 0.20 0.19 0.21 0.42 0.52 0.65 0.70 0.84 0.92 0.98 1.14 1.13 1.10 1.10 1.15 1.31 1.43 1.49 1.53 1.54 1.55 1.56
0.49 0.44 0.46 0.41 0.44 0.40 0.32 0.32 0.27 0.29 0.25 0.30 0.25 0.27 0.21 0.21 0.26 0.24 0.22 0.20 0.26 0.18 0.17 0.14 0.19 0.18 0.28 0.27 0.31 0.31 0.32 0.33 0.37 0.34 0.37 0.36 0.40 0.46 0.42 0.36 0.34 0.35 0.33 0.31 0.36 0.34 0.36 0.36 0.42 0.47 0.49 0.51 0.54 0.51 0.49 0.48 0.40 0.37 0.30 0.30 0.32 0.29 0.28 0.22 0.20 0.20 0.25 0.23 0.21 0.56 0.66 0.55 0.61 0.77 0.86 0.94 1.06 1.12 1.19 1.22 1.16 1.27 1.43 1.46 1.45 1.52 1.56 1.57
0.41 0.54 0.51 0.50 0.47 0.38 0.27 0.31 0.32 0.28 0.24 0.23 0.27 0.31 0.25 0.24 0.25 0.23 0.28 0.29 0.18 0.23 0.15 0.23 0.26 0.25 0.20 0.22 0.25 0.22 0.36 0.41 0.37 0.32 0.35 0.39 0.42 0.45 0.44 0.45 0.35 0.37 0.32 0.33 0.40 0.36 0.36 0.36 0.49 0.47 0.47 0.50 0.53 0.52 0.50 0.46 0.43 0.42 0.42 0.45 0.48 0.36 0.30 0.25 0.21 0.23 0.29 0.25 0.26 0.53 0.58 0.61 0.71 0.80 0.85 0.98 1.06 1.04 1.11 1.21 1.29 1.38 1.50 1.51 1.50 1.44 1.43 1.43
0.72 0.66 0.59 0.60 0.44 0.42 0.38 0.38 0.36 0.30 0.31 0.29 0.26 0.26 0.27 0.21 0.24 0.27 0.27 0.27 0.25 0.26 0.23 0.19 0.26 0.30 0.26 0.26 0.27 0.24 0.31 0.28 0.31 0.37 0.36 0.38 0.39 0.38 0.39 0.40 0.42 0.43 0.37 0.34 0.36 0.40 0.38 0.37 0.45 0.44 0.44 0.44 0.48 0.52 0.51 0.47 0.51 0.54 0.60 0.59 0.55 0.52 0.54 0.38 0.29 0.27 0.29 0.35 0.35 0.61 0.58 0.59 0.70 0.74 0.85 0.97 1.09 1.07 1.13 1.22 1.30 1.35 1.42 1.46 1.48 1.51 1.41 1.42
0.67 0.69 0.65 0.70 0.60 0.51 0.46 0.43 0.40 0.34 0.30 0.31 0.26 0.28 0.28 0.27 0.28 0.30 0.32 0.26 0.24 0.33 0.30 0.15 0.22 0.25 0.25 0.28 0.30 0.21 0.29 0.34 0.35 0.33 0.39 0.37 0.39 0.37 0.35 0.37 0.38 0.44 0.39 0.37 0.36 0.42 0.35 0.43 0.42 0.44 0.42 0.44 0.49 0.52 0.53 0.52 0.52 0.53 0.57 0.57 0.58 0.57 0.54 0.56 0.38 0.35 0.45 0.44 0.51 0.58 0.55 0.58 0.78 0.93 0.97 1.08 1.16 1.15 1.10 1.07 1.19 1.30 1.36 1.38 1.40 1.44 1.49 1.48
0.71 0.73 0.76 0.62 0.53 0.50 0.45 0.41 0.36 0.34 0.31 0.30 0.24 0.28 0.28 0.28 0.27 0.29 0.33 0.29 0.25 0.28 0.28 0.27 0.30 0.28 0.23 0.18 0.27 0.24 0.31 0.29 0.28 0.33 0.41 0.39 0.33 0.40 0.38 0.43 0.40 0.39 0.44 0.39 0.38 0.42 0.40 0.46 0.44 0.48 0.42 0.41 0.48 0.50 0.51 0.57 0.51 0.55 0.55 0.55 0.57 0.58 0.58 0.68 0.61 0.72 0.63 0.55 0.48 0.57 0.57 0.63 0.83 0.94 0.97 1.06 1.09 1.07 1.04 1.09 1.19 1.25 1.31 1.37 1.40 1.45 1.52 1.62
0.71 0.79 0.86 0.72 0.50 0.54 0.47 0.43 0.40 0.32 0.26 0.32 0.32 0.33 0.31 0.32 0.32 0.33 0.29 0.32 0.32 0.26 0.28 0.27 0.27 0.20 0.29 0.28 0.25 0.28 0.30 0.28 0.27 0.33 0.37 0.39 0.37 0.39 0.43 0.42 0.41 0.37 0.38 0.38 0.40 0.34 0.37 0.38 0.43 0.46 0.41 0.42 0.50 0.50 0.50 0.57 0.52 0.48 0.48 0.53 0.59 0.60 0.69 0.81 0.80 0.73 0.66 0.67 0.56 0.55 0.61 0.79 0.88 1.00 0.95 0.98 1.05 1.10 1.11 1.13 1.18 1.26 1.29 1.42 1.53 1.44 1.50 1.59
Wind_Speed
12 12 12 12 12 12 12 12 12 11 11 11 11 12 12 12 11 11 11 11 12 12 12 13 13 13 13 13 13 13 13 14 14 15 16 15 14 15 15 14 14 14 14 14 14 14 14 13 12 11 10 9 8 7 7 8 7 6 6 5 5 4 4 2 3 5 8 10 10 11 12 11 11 10 10 11 10 10 10 9 9 11 13 13 15 16 16 15
12 12 12 12 12 12 12 12 12 12 12 12 12 12 12 12 12 12 12 12 12 12 13 13 13 14 14 14 14 14 14 15 16 17 18 16 15 15 15 15 15 15 15 15 15 15 14 13 12 12 10 9 8 8 7 6 6 6 6 5 6 5 4 2 2 5 8 11 11 12 13 12 12 11 10 10 10 11 10 10 13 14 14 14 15 16 15 15
12 12 12 13 13 13 13 13 13 13 13 13 13 13 13 13 13 12 12 13 13 13 13 13 14 14 14 14 14 14 15 16 17 17 16 16 16 16 16 16 16 16 16 16 16 16 15 13 12 12 11 9 9 8 7 6 5 6 6 6 6 5 3 2 2 7 9 12 12 12 13 12 12 11 10 10 11 11 10 12 14 14 14 15 15 15 15 15
13 13 13 13 13 13 13 13 13 13 13 13 13 13 13 13 13 13 13 13 13 13 14 14 14 15 15 15 15 14 15 17 16 14 12 14 15 16 17 17 16 17 17 17 17 16 16 14 13 12 12 11 10 9 8 7 7 6 6 6 5 3 2 1 3 8 11 12 12 12 13 13 12 10 10 11 11 11 11 13 14 14 15 15 15 15 15 14
14 14 14 14 13 13 13 14 14 14 13 13 13 13 13 13 13 13 13 13 13 14 14 14 15 15 15 15 15 15 15 15 13 13 13 14 15 16 17 17 17 17 17 17 18 17 17 16 14 13 13 11 11 10 9 9 8 7 7 6 3 3 3 1 4 8 11 12 12 13 13 13 12 10 9 11 10 10 12 13 14 15 15 15 15 15 15 14
15 14 14 14 14 14 14 14 14 14 14 13 13 13 13 13 13 13 13 14 14 14 14 15 15 15 16 16 16 16 16 15 12 14 15 15 16 17 17 17 17 17 17 17 18 18 17 17 15 14 13 12 11 10 9 9 8 7 6 4 2 3 2 1 5 8 10 12 13 13 13 12 12 11 10 10 9 11 13 14 15 15 16 16 15 15 15 14
15 14 14 14 14 14 15 15 15 14 14 14 13 14 14 14 14 14 14 14 14 15 15 15 16 16 16 16 17 17 18 18 15 15 15 15 16 17 17 18 17 18 18 18 18 18 18 17 16 15 13 12 11 10 10 9 8 8 5 3 2 2 1 3 7 9 9 11 13 12 13 13 12 11 10 10 10 11 13 14 15 16 16 16 15 15 14 14
15 15 14 14 14 14 15 15 15 15 14 14 14 14 14 14 14 14 14 15 15 15 15 16 16 17 17 16 17 17 19 19 15 15 17 16 16 16 18 18 18 19 19 19 19 18 17 17 17 15 14 13 11 10 10 9 9 8 5 2 2 1 2 4 8 10 9 11 12 11 13 13 12 11 10 11 11 12 14 15 16 16 16 16 15 15 14 14
15 15 14 14 14 15 15 15 15 15 15 14 14 15 15 15 15 15 15 15 15 16 16 16 17 17 17 17 17 18 18 17 15 16 18 18 17 17 18 19 19 20 20 19 19 19 17 17 17 16 16 14 12 10 10 9 7 6 5 3 3 3 4 6 8 9 10 11 12 12 12 12 11 11 12 13 13 13 15 16 16 16 16 16 15 15 14 14
16 15 14 14 14 15 15 16 16 15 15 15 15 15 16 16 16 16 16 16 16 17 17 17 17 17 18 18 19 18 17 17 17 18 18 18 18 18 19 19 20 21 20 20 20 20 18 17 16 16 16 15 12 11 11 10 6 4 5 4 3 5 6 7 8 9 10 11 13 13 13 12 11 10 12 13 13 14 16 16 16 16 16 16 15 15 14 14
16 15 14 14 14 15 16 16 16 16 16 16 16 16 17 17 17 17 17 17 17 18 17 18 18 18 19 19 20 20 18 18 19 19 19 19 19 20 20 20 21 22 21 20 20 20 19 18 16 15 15 13 13 12 12 11 9 6 6 4 3 5 6 7 8 10 11 11 13 14 13 12 10 10 12 13 14 15 16 17 17 16 15 16 15 14 14 13
16 15 15 14 15 15 16 17 17 17 17 17 17 17 17 17 17 18 18 18 18 18 18 18 18 18 19 20 22 21 19 20 20 20 20 20 21 21 21 21 21 23 22 20 20 20 20 19 18 17 15 13 13 11 11 12 11 8 7 5 4 4 5 7 9 10 10 12 15 15 13 11 9 11 13 14 14 15 16 17 17 16 16 16 15 14 13 13
16 15 15 15 15 16 16 17 17 17 17 18 18 18 18 18 18 18 18 18 18 18 18 18 18 18 19 19 20 20 21 22 21 21 21 21 22 22 22 21 22 23 23 21 20 19 21 20 19 19 17 15 14 11 10 12 12 10 8 7 6 5 6 8 9 11 11 13 16 14 12 11 10 11 13 14 14 16 16 17 17 16 16 15 15 14 13 13
16 15 15 15 15 16 17 17 17 17 18 18 19 19 19 18 18 18 18 18 18 18 18 17 17 17 18 19 18 19 21 22 21 21 22 22 22 22 22 22 22 24 24 22 20 19 20 20 19 19 18 17 16 12 11 13 13 11 9 8 8 7 8 9 9 12 13 13 14 12 11 12 12 12 13 14 14 16 17 17 17 16 16 15 14 14 14 13
16 15 15 15 16 17 17 18 18 18 19 19 19 19 19 18 18 18 18 18 18 17 16 16 16 15 16 18 17 17 19 21 21 22 21 21 22 22 23 23 23 24 23 23 21 19 20 20 20 20 18 18 18 15 13 14 14 13 11 10 10 9 8 9 11 13 12 12 13 12 11 12 13 13 13 14 14 15 17 17 17 17 16 16 15 14 14 13
16 15 15 16 16 17 17 18 18 18 19 19 20 19 19 19 18 18 18 17 17 16 14 13 13 13 14 14 14 15 17 19 20 20 20 21 21 22 22 23 23 24 23 24 21 19 20 21 20 20 19 18 18 16 14 14 15 15 14 12 11 10 9 9 11 12 12 13 13 12 12 12 13 13 13 14 15 15 17 17 17 17 16 16 15 14 14 13
16 15 16 16 17 17 17 18 18 19 19 20 20 20 19 18 17 17 17 15 15 14 12 11 11 13 13 12 12 13 13 14 17 19 20 20 20 21 22 22 23 24 24 24 23 20 21 21 20 20 20 19 18 18 16 14 14 14 15 13 11 11 10 9 10 12 14 14 13 12 12 13 13 14 14 15 16 15 17 18 17 17 16 16 15 15 14 14
16 16 16 16 17 17 17 18 19 19 19 20 20 19 19 18 17 16 15 13 12 11 10 10 11 11 10 10 10 10 10 12 15 17 19 20 20 21 22 22 22 23 23 24 24 23 21 21 20 19 20 20 20 19 17 15 13 13 14 12 10 12 12 11 11 12 14 14 13 12 12 13 14 14 15 16 16 16 17 18 17 17 17 16 15 15 15 14
16 16 16 16 17 17 17 18 18 19 20 20 19 19 19 17 15 14 12 10 9 9 10 9 8 10 9 9 8 8 10 11 13 16 17 18 19 20 21 22 22 23 23 22 23 24 22 21 21 21 21 21 21 21 19 17 13 12 12 11 10 11 12 12 11 12 15 14 14 13 12 13 15 15 16 18 17 15 15 16 17 17 16 16 16 15 15 15
16 16 16 16 17 17 17 18 18 19 19 19 18 17 17 16 13 11 9 8 8 10 11 9 9 11 9 7 7 8 9 10 12 14 16 17 18 19 21 21 22 23 23 22 22 24 23 22 22 22 22 22 22 22 21 19 16 12 10 11 11 11 11 11 10 12 14 14 14 14 12 13 15 15 17 18 17 15 14 15 16 17 16 16 16 16 16 15
16 15 15 16 16 17 17 17 18 18 18 18 17 16 16 16 13 10 10 9 7 8 10 10 10 10 8 8 10 9 8 9 11 13 14 16 17 18 19 21 22 22 23 23 22 22 24 24 23 23 22 22 21 21 22 21 19 14 9 10 11 10 10 10 10 12 13 13 13 13 12 14 14 15 17 18 17 16 16 16 17 18 17 16 16 16 16 16
16 15 15 16 16 16 17 17 17 17 17 16 15 15 16 15 12 10 11 10 7 8 9 10 10 8 7 9 10 8 8 8 9 12 12 15 17 17 18 19 21 21 22 24 22 21 24 24 24 23 22 22 21 21 22 21 20 17 11 11 12 10 8 8 10 11 12 11 11 13 13 13 13 14 17 19 18 16 16 17 16 17 17 16 16 16 16 17
16 15 15 15 16 16 16 16 17 16 15 14 14 15 15 13 12 10 9 9 7 7 8 9 10 8 7 9 6 6 9 8 8 10 12 14 16 17 17 18 20 21 21 23 23 22 22 23 25 23 21 22 22 22 22 20 21 19 14 12 14 13 10 8 10 11 12 11 11 14 13 10 11 13 15 18 18 17 17 17 16 15 16 16 16 16 16 17
15 15 15 15 15 15 16 16 16 15 14 14 14 14 14 12 12 11 10 9 7 6 8 9 8 8 9 8 4 5 7 7 7 9 10 13 15 15 16 17 19 20 21 23 24 23 22 21 24 24 22 22 22 22 21 20 21 19 17 15 14 15 13 11 11 11 11 11 10 12 11 9 11 12 14 16 16 16 17 18 16 15 15 15 16 17 17 17
15 15 15 15 15 15 16 15 14 14 14 13 12 13 13 11 11 10 10 8 5 5 7 7 7 8 9 6 2 4 5 6 7 8 9 13 15 14 14 16 18 19 20 22 24 23 22 21 22 24 24 23 23 22 21 21 18 17 18 18 15 15 14 12 13 12 10 10 12 12 10 9 11 12 13 14 14 16 18 18 18 16 16 16 16 17 17 17
15 15 15 15 14 14 15 14 12 14 15 13 11 12 12 10 10 10 9 7 4 4 5 6 7 7 7 5 1 3 4 5 6 6 8 12 14 13 13 15 17 19 19 19 21 21 21 21 21 24 24 23 24 22 21 21 18 16 17 18 17 14 12 13 13 11 10 10 12 14 11 8 10 11 12 13 15 17 17 18 18 17 17 18 17 17 18 18
15 15 15 14 14 13 13 13 13 14 14 12 11 12 11 10 10 9 8 6 3 5 7 7 8 8 6 5 3 4 2 2 5 6 7 10 13 13 13 13 15 18 17 17 19 20 22 22 21 23 23 23 24 22 21 21 19 18 15 15 18 16 13 15 13 11 11 9 10 14 13 10 10 11 12 13 16 17 17 18 19 18 18 19 19 19 18 18
15 15 14 14 13 12 12 13 13 13 12 11 11 11 10 9 9 8 7 6 5 7 8 7 8 8 5 3 3 4 2 2 4 5 6 9 11 12 13 13 13 17 17 17 18 18 21 23 21 23 23 21 21 22 22 21 20 19 14 11 15 18 16 15 14 12 12 10 9 12 13 12 11 11 12 13 15 17 18 19 19 19 19 19 20 20 20 20
15 15 14 13 13 12 11 11 11 12 11 11 11 10 10 9 8 7 6 6 7 6 7 7 7 6 5 4 3 2 3 4 4 4 6 9 11 12 12 12 13 17 19 18 18 17 18 20 19 21 23 21 19 21 23 22 19 19 17 12 12 16 17 15 14 13 13 13 13 13 14 13 10 12 14 14 14 16 17 18 19 20 19 19 21 21 21 20
15 14 13 13 12 10 10 10 10 10 10 10 11 10 10 8 7 7 5 7 7 5 7 7 6 5 6 5 4 1 3 5 4 5 7 8 11 13 13 12 13 15 16 18 19 18 17 17 18 19 21 22 20 20 22 23 20 18 18 16 14 14 15 15 14 13 13 14 14 15 16 13 10 12 15 15 14 15 15 16 18 20 21 21 22 22 22 21
15 14 13 12 10 10 9 9 9 9 9 10 11 10 9 6 6 7 6 7 7 6 7 6 6 7 7 5 3 3 4 5 3 4 6 6 8 11 12 12 12 12 14 16 18 20 19 18 20 20 20 22 22 21 21 22 21 19 17 17 17 16 14 14 14 13 13 13 12 14 16 15 12 13 16 15 14 15 15 15 18 20 22 22 22 23 23 22
14 13 12 11 10 10 9 9 9 10 9 9 10 9 7 6 6 6 7 8 6 7 8 5 8 9 5 3 3 2 2 3 2 4 5 6 7 10 11 11 11 11 12 13 16 19 21 19 20 21 21 22 22 20 20 20 20 20 18 16 17 17 15 14 15 15 14 12 12 12 13 14 13 12 15 16 15 16 15 14 16 19 21 23 23 23 23 22
14 13 12 10 10 9 8 9 9 9 9 9 8 7 6 7 6 4 7 8 6 7 7 4 6 8 5 4 4 3 3 2 3 4 5 6 7 8 11 11 11 11 10 11 14 17 20 20 19 20 20 23 24 21 19 20 21 22 21 18 17 16 15 15 15 16 14 13 14 14 11 10 9 9 13 15 15 15 16 15 15 18 21 22 23 23 23 23
14 12 10 9 9 8 8 8 8 8 8 8 7 7 6 7 5 5 7 8 8 8 5 4 7 7 5 5 5 5 5 4 5 5 5 6 7 8 9 11 12 12 10 10 13 16 18 19 20 20 19 21 25 24 21 20 21 22 21 20 19 17 15 14 13 15 15 13 14 15 13 11 10 11 12 13 13 13 14 15 13 15 19 22 23 24 23 23
13 11 9 9 8 8 8 8 7 7 7 7 7 7 7 6 5 6 7 7 9 9 5 5 7 7 5 5 5 6 4 4 4 5 5 5 6 6 7 8 10 10 10 10 11 13 17 18 19 21 20 21 25 25 21 19 20 21 21 22 21 18 16 14 13 14 14 12 12 12 11 9 9 10 11 12 13 13 13 14 13 14 17 20 22 24 24 24
11 8 7 8 7 7 7 6 6 6 5 6 6 7 7 5 5 8 8 8 9 8 7 7 6 6 6 5 5 5 4 3 4 4 5 5 4 6 6 7 8 8 8 9 10 11 14 14 15 20 20 20 23 24 22 20 18 18 21 24 22 19 17 16 14 14 14 13 12 11 9 9 10 10 11 12 13 12 12 13 14 15 17 17 20 22 23 23
9 8 7 7 7 6 5 5 5 5 5 6 6 7 7 5 5 8 8 8 8 6 7 8 6 5 5 4 5 5 3 3 5 4 4 5 4 5 6 5 6 8 8 8 9 10 12 12 12 17 19 19 21 23 24 22 18 16 18 20 21 20 19 17 15 15 15 14 14 14 11 10 11 11 12 14 13 12 12 13 15 16 17 16 18 21 22 22
9 9 8 7 6 5 5 5 5 5 5 6 7 7 7 6 6 8 8 8 8 6 6 7 5 4 5 4 5 5 3 2 4 3 2 4 5 4 5 4 4 7 8 8 9 8 9 11 11 13 17 18 19 21 24 25 23 19 16 16 18 20 20 18 17 15 14 13 13 15 12 9 9 10 12 14 14 13 13 14 15 15 16 15 16 20 22 22
8 9 8 5 4 5 5 5 4 5 5 6 7 6 5 5 5 6 8 7 6 5 6 6 4 4 5 5 5 5 4 4 3 2 1 3 5 6 7 6 4 5 7 9 9 7 8 11 10 11 16 17 17 19 22 24 25 23 19 16 17 18 18 19 18 16 14 13 12 13 13 10 9 11 11 11 13 14 13 13 14 14 14 15 16 19 21 22
7 8 6 4 4 6 5 5 5 5 5 6 8 6 5 6 5 5 7 7 6 5 5 6 5 5 6 6 6 5 4 5 3 2 3 4 5 6 6 6 6 6 7 9 10 8 8 10 10 10 14 16 17 19 20 22 24 24 21 19 17 17 17 18 18 18 16 13 11 11 11 10 10 11 10 9 10 12 11 11 13 14 14 15 16 18 20 22
8 8 5 4 4 6 5 5 5 6 7 8 9 6 5 6 7 7 6 5 5 5 5 6 6 5 6 5 5 5 5 4 3 3 3 3 4 4 5 6 7 6 7 9 10 8 8 10 10 9 12 16 16 17 19 21 22 23 23 20 18 17 18 17 17 18 17 15 12 11 10 10 10 10 10 10 11 12 10 10 11 13 14 14 15 17 20 22
7 7 5 4 6 6 6 6 6 7 8 7 6 5 4 6 8 8 6 5 5 4 4 6 6 5 6 5 5 5 5 4 3 4 3 4 4 3 3 5 7 6 6 8 8 7 8 10 10 10 11 15 16 15 18 22 23 23 24 22 18 16 18 18 16 15 16 16 15 14 11 10 10 10 9 10 11 11 11 10 11 13 14 14 14 15 18 21
7 7 5 6 8 7 6 6 7 7 6 5 5 5 5 5 6 5 5 5 5 4 5 6 6 5 5 5 5 5 5 4 5 5 4 5 4 4 4 5 6 6 7 8 8 8 9 10 11 11 10 13 16 16 16 21 23 22 23 23 21 19 18 17 17 15 14 15 15 14 13 12 12 11 10 10 10 10 11 11 11 12 13 13 13 13 15 18
9 9 6 6 8 7 6 7 7 7 7 6 7 7 6 6 6 5 6 6 5 5 6 6 5 5 5 5 6 6 4 4 5 6 6 5 4 4 5 5 5 5 5 7 8 9 9 9 10 12 11 9 12 13 13 18 22 21 21 23 23 24 22 19 18 17 16 15 15 14 12 12 13 11 10 10 9 8 9 10 11 12 13 14 14 13 13 16
9 8 6 6 8 6 7 8 9 9 9 8 8 9 9 8 7 7 8 7 6 6 7 6 5 6 6 7 7 7 5 5 5 6 6 6 5 6 6 6 7 6 4 6 9 10 10 9 10 12 12 8 10 11 10 13 17 19 20 22 22 24 24 22 19 18 17 16 15 12 11 13 14 12 10 10 9 8 8 9 11 12 14 15 15 14 14 14
8 8 7 7 7 7 8 9 9 9 8 7 7 7 7 7 6 6 7 7 6 7 7 7 6 6 6 7 7 7 7 6 5 6 6 6 6 7 7 8 9 6 5 7 9 11 11 11 11 12 14 12 11 12 11 11 14 16 20 21 20 22 23 22 21 19 17 17 15 11 13 16 15 13 12 12 11 10 10 10 10 11 13 13 14 15 15 15
8 7 8 8 7 8 8 9 9 8 7 7 6 5 6 6 5 5 6 6 6 7 7 7 6 6 6 7 8 8 7 7 7 7 7 6 6 7 6 8 9 6 7 9 10 10 11 12 12 13 15 15 14 14 14 14 13 15 18 18 18 20 22 23 23 20 17 16 13 11 14 16 15 13 13 13 12 12 12 13 12 13 13 13 14 15 15 14
8 8 9 9 8 7 7 7 8 9 8 7 5 5 7 8 7 7 6 5 5 6 6 6 7 7 7 7 8 7 8 9 8 8 8 7 8 8 7 8 9 8 8 10 10 10 11 11 12 13 15 16 15 14 14 15 14 14 15 14 13 14 18 22 24 22 19 17 13 11 13 15 15 14 13 13 13 12 13 14 15 15 15 15 15 16 16 15
9 10 10 9 9 8 7 7 8 9 9 7 6 6 7 8 8 7 6 7 6 5 6 7 7 7 7 8 7 8 8 9 8 7 7 8 9 8 8 8 8 8 8 9 9 9 11 11 11 13 15 16 15 14 14 15 14 12 12 12 11 11 14 19 23 22 18 17 13 11 13 14 14 15 14 13 14 13 12 13 15 17 17 16 15 16 16 16
11 11 11 11 10 10 10 9 9 9 8 6 7 8 7 8 9 7 6 8 8 5 6 8 8 7 7 7 7 7 8 8 7 6 6 7 7 7 7 7 8 7 7 8 9 9 10 10 10 12 15 15 15 14 14 13 12 10 9 11 11 11 11 14 17 17 15 15 13 12 14 15 14 14 13 13 14 13 13 14 15 17 18 18 18 16 16 16
12 12 12 11 10 10 10 10 9 9 7 6 7 8 8 9 9 7 6 7 8 8 7 7 7 6 7 7 7 7 7 5 5 5 6 6 6 6 5 5 7 7 6 7 8 9 10 10 9 11 13 13 14 16 14 11 11 10 9 10 11 11 12 12 12 13 13 14 14 13 13 15 15 14 13 13 15 15 14 14 13 14 15 15 17 17 15 15
13 13 12 11 11 10 10 10 9 9 8 8 7 6 6 7 7 7 8 8 9 10 8 7 7 6 6 6 6 6 6 6 6 5 5 5 5 6 6 6 7 7 6 6 7 9 10 10 10 10 11 12 13 14 13 11 11 10 10 11 10 11 14 15 13 13 14 15 15 15 15 15 15 15 15 14 15 14 13 13 13 14 14 13 12 14 14 13
Wind_Direction
345 343 341 339 337 334 332 330 327 324 320 316 312 308 304 300 296 291 288 284 281 280 278 278 278 276 275 273 270 268 265 260 255 248 241 238 234 233 234 231 229 230 227 225 224 224 224 225 229 233 236 241 245 250 253 249 251 258 258 276 287 287 294 263 181 188 185 178 177 177 175 167 160 158 157 158 154 148 148 148 144 140 138 137 136 136 134 133
345 343 341 338 336 334 331 329 326 324 320 317 313 310 307 302 298 293 289 285 282 280 278 277 276 275 274 272 270 268 265 260 255 251 245 239 235 233 233 232 231 229 225 223 222 222 223 223 225 228 233 240 244 244 250 248 247 255 258 274 278 276 299 300 179 181 183 177 176 177 177 171 164 164 161 157 153 151 152 147 142 138 136 137 139 138 136 136
345 342 340 338 336 334 331 329 326 323 320 318 315 313 310 306 301 296 291 288 284 282 279 277 275 275 273 270 269 267 264 261 256 250 244 235 232 233 232 232 231 227 225 223 222 222 223 224 225 227 232 239 242 239 244 245 246 256 255 274 275 264 292 309 194 189 182 173 175 179 176 172 169 167 163 159 154 153 152 147 144 142 142 142 143 141 140 139
344 342 340 339 337 334 332 330 327 324 321 318 317 315 312 309 304 300 295 290 287 283 281 279 276 274 272 270 267 264 263 261 253 242 235 231 232 233 232 232 228 226 225 223 224 225 224 226 226 228 233 240 242 238 246 251 248 252 254 276 271 244 291 308 200 185 175 172 175 176 171 172 173 169 167 163 156 153 151 149 150 149 146 145 146 145 144 142
342 341 340 339 338 336 334 331 329 326 323 320 318 316 314 311 307 303 298 294 289 286 284 280 279 275 272 269 265 263 259 254 247 236 235 236 235 234 232 229 226 224 223 220 225 228 223 224 227 230 232 238 243 240 247 252 249 254 262 279 265 236 282 271 189 174 169 172 175 174 172 172 168 165 170 164 159 159 155 153 153 151 147 147 148 147 146 145
342 341 340 339 338 337 336 334 332 328 326 323 320 317 315 313 309 306 302 298 293 288 285 281 279 276 273 269 263 259 251 248 247 238 239 239 236 235 231 227 224 222 220 219 226 227 221 221 225 228 229 234 242 242 245 248 250 258 265 281 264 236 263 177 181 166 167 172 173 175 172 171 165 162 166 162 166 166 158 156 155 152 150 149 149 149 147 146
343 341 339 339 338 338 338 337 335 332 329 326 323 320 317 314 311 308 304 301 297 293 288 283 279 275 274 269 261 255 248 250 250 238 240 241 237 235 229 225 222 220 217 219 225 223 218 220 222 226 229 232 238 243 245 246 248 255 263 276 258 230 124 162 174 165 170 172 172 173 171 172 167 161 160 164 177 170 159 158 156 154 153 151 152 151 148 146
342 340 339 339 338 339 339 338 337 334 332 329 326 323 319 316 312 309 305 302 300 297 292 286 280 275 274 269 261 254 247 249 248 239 241 241 238 234 226 223 221 218 217 219 224 221 217 219 221 224 226 228 237 244 243 245 249 250 254 256 237 196 120 162 172 171 175 173 171 168 170 171 162 160 160 169 181 169 160 160 157 157 155 154 154 152 150 149
341 340 339 338 338 339 339 339 338 336 334 331 327 324 320 316 312 308 305 303 301 298 295 290 282 275 272 266 260 255 247 248 249 242 240 240 239 231 223 222 219 218 218 221 223 221 217 219 221 223 227 233 244 247 239 240 245 233 220 228 214 160 146 166 169 171 173 173 169 163 169 170 163 164 162 169 175 164 161 160 158 160 157 156 156 154 153 151
342 341 339 338 338 338 339 339 338 337 334 331 328 325 321 317 313 309 305 302 300 297 296 291 285 278 270 263 258 254 249 253 253 245 239 237 235 227 223 222 219 218 220 222 222 220 218 219 221 224 230 237 241 243 235 228 229 210 192 198 183 154 161 176 170 166 166 168 168 165 171 173 170 173 165 166 169 163 162 161 160 162 160 158 157 156 155 154
343 342 339 338 338 338 338 338 338 336 334 332 329 325 322 318 313 310 306 303 299 296 294 291 287 278 270 263 256 253 254 255 254 247 239 234 231 226 224 222 220 219 220 222 222 220 218 220 224 223 226 229 232 237 232 219 215 205 184 176 175 163 168 177 171 167 169 172 172 168 168 171 173 174 168 166 167 166 163 162 164 164 162 160 159 159 159 158
344 342 340 339 338 338 338 338 337 335 334 331 328 325 321 318 314 311 307 304 300 297 293 290 286 279 272 264 255 254 257 254 251 247 238 232 230 226 224 223 220 220 220 222 221 220 220 221 224 223 222 224 226 232 229 216 208 200 191 190 190 183 184 183 176 176 177 177 175 170 166 171 178 174 171 169 168 168 166 165 166 165 163 163 161 161 162 162
343 342 340 339 339 339 338 337 336 334 333 331 328 325 321 318 315 312 309 306 303 299 295 291 286 279 273 265 257 257 257 252 248 245 238 232 229 226 225 224 221 220 220 221 222 222 221 221 224 226 228 228 225 229 230 221 213 206 205 207 202 202 205 197 183 178 179 179 178 180 177 178 183 178 175 173 169 169 169 169 168 166 166 165 165 165 163 165
343 341 340 339 338 338 337 336 335 334 333 331 329 325 322 319 316 314 312 310 306 302 298 293 289 281 274 266 264 264 256 249 245 240 236 231 228 226 225 224 221 219 219 221 224 224 222 222 224 225 227 226 227 235 235 225 219 213 211 214 215 214 205 199 191 179 180 182 182 189 187 183 185 182 179 176 172 173 172 171 171 170 169 168 169 168 166 168
341 340 339 338 337 336 336 336 335 334 332 331 329 327 324 321 319 317 315 314 310 305 301 297 291 284 277 268 266 268 254 244 240 235 233 229 227 226 224 223 220 219 220 219 222 225 222 221 222 222 223 224 227 233 231 224 221 214 212 216 215 210 202 200 198 188 187 186 187 196 193 187 187 186 187 180 175 177 174 173 174 173 171 171 173 171 170 171
339 338 338 337 337 336 336 336 335 334 332 331 329 327 325 323 322 319 318 317 313 310 305 302 296 285 284 277 267 266 252 239 235 231 230 227 226 226 222 220 219 219 220 218 219 223 220 219 220 220 222 223 222 224 224 222 220 218 222 223 213 208 210 209 204 199 199 193 192 202 197 191 189 188 191 185 179 179 176 176 177 176 175 174 176 175 174 174
338 337 337 336 336 336 336 336 335 334 333 332 331 329 328 326 325 323 320 318 317 316 306 304 304 290 286 284 269 260 250 239 233 229 227 225 225 225 220 219 218 217 218 217 219 221 218 218 219 219 220 220 218 218 221 220 217 218 225 226 213 211 216 214 211 207 205 200 198 202 198 195 193 191 192 188 184 182 179 179 179 179 178 178 180 178 177 177
336 335 335 335 336 336 336 335 335 335 334 333 331 330 330 329 328 326 323 322 321 320 310 302 306 301 290 285 272 260 255 245 233 227 225 224 225 222 217 217 217 215 216 217 218 219 218 216 216 218 217 216 216 215 216 218 218 219 223 226 214 214 220 218 217 211 205 204 203 202 201 197 194 196 195 189 188 186 183 182 181 181 181 181 183 181 179 180
335 333 333 334 335 335 335 335 336 336 335 333 330 330 331 330 327 325 325 328 327 327 326 312 300 309 307 291 276 264 262 250 233 226 224 223 222 218 215 215 215 213 215 215 215 215 215 215 215 217 216 214 215 215 217 219 220 224 226 227 222 220 224 221 218 212 204 204 205 202 201 199 198 200 195 188 189 189 186 186 185 184 184 184 185 183 182 182
333 331 332 333 334 334 334 335 336 336 337 335 333 333 335 336 332 327 326 322 320 326 333 328 309 308 307 290 279 275 264 249 234 226 224 222 218 215 214 213 213 213 214 214 213 212 213 215 215 216 216 216 216 216 220 222 224 231 225 217 219 220 222 223 219 211 206 206 206 202 200 202 201 201 197 190 190 191 188 189 188 186 187 188 187 185 184 184
331 330 330 332 333 333 334 334 335 337 338 337 337 338 341 345 341 334 329 315 314 333 338 340 327 311 308 296 285 276 257 244 235 226 222 218 215 214 211 211 212 212 214 215 213 211 213 217 216 216 217 218 219 218 221 225 226 231 222 207 210 213 220 228 222 210 209 210 210 206 201 202 200 200 200 193 192 194 190 189 191 189 189 190 190 187 186 186
329 329 329 331 332 332 333 333 335 337 338 339 339 337 339 346 343 333 330 317 313 332 333 336 331 314 312 306 288 264 246 240 230 221 218 215 214 212 207 210 213 212 213 214 213 211 213 218 217 216 217 219 221 220 221 224 224 224 220 214 214 206 209 226 224 214 210 208 209 208 202 197 198 200 202 198 195 197 194 193 193 192 191 192 192 190 188 188
328 328 327 330 331 331 332 332 334 335 337 339 338 338 340 344 342 335 330 316 309 325 330 334 336 331 323 315 295 252 241 239 228 217 214 214 214 212 211 214 214 213 213 211 213 213 214 218 217 217 218 218 221 221 220 220 221 221 218 220 218 207 209 223 221 216 213 209 206 206 204 199 200 200 202 201 198 198 198 199 199 199 197 195 195 193 191 191
327 326 326 328 329 330 331 331 332 331 333 335 335 340 345 345 344 341 333 318 302 318 339 340 337 344 341 327 295 242 236 238 234 219 212 214 212 211 216 218 215 215 215 213 216 217 218 218 215 217 219 218 220 220 219 219 220 219 221 226 219 211 219 224 212 210 217 220 211 202 205 210 206 203 203 202 201 200 199 203 206 206 204 200 198 195 194 195
326 326 326 327 329 330 330 331 332 333 333 331 332 340 343 345 346 345 337 325 303 311 339 344 339 343 347 341 282 254 254 242 230 214 212 215 212 212 219 220 216 217 217 214 217 220 220 218 213 214 218 217 219 219 218 218 217 218 222 226 219 215 218 209 202 207 217 223 214 203 207 213 209 210 208 202 203 204 201 205 209 209 207 205 202 197 196 199
326 325 325 325 328 329 330 333 336 339 340 338 340 342 343 347 347 346 340 327 319 331 338 346 347 344 344 346 312 278 270 236 215 213 222 217 215 221 222 218 213 216 221 216 217 220 219 220 215 213 215 216 217 218 215 214 216 219 222 223 219 210 196 187 194 210 218 221 213 208 213 214 211 215 209 202 206 208 205 208 212 211 209 207 204 200 198 199
326 325 325 324 327 329 331 334 333 337 342 347 347 342 345 350 345 345 339 327 347 346 330 335 343 338 333 334 300 278 292 242 214 216 227 216 214 221 221 218 213 215 223 218 217 219 218 221 218 211 215 218 215 213 211 211 215 217 222 232 222 202 190 194 200 216 220 216 211 211 217 219 215 213 207 204 208 209 209 211 212 212 210 208 206 203 201 200
326 325 324 323 325 327 329 331 331 331 336 345 345 341 346 346 341 343 335 336 353 338 331 340 340 331 322 327 308 277 261 248 222 217 234 222 212 216 219 223 221 216 219 221 221 215 212 221 219 210 215 218 212 211 213 213 216 217 223 243 222 202 200 205 206 215 212 206 213 215 219 224 219 212 207 208 210 210 211 211 209 209 208 208 207 205 203 203
326 325 323 323 322 322 324 327 331 332 334 341 341 340 338 333 335 337 327 335 343 340 344 343 337 339 323 293 287 278 241 237 244 250 244 227 217 220 224 229 231 224 221 224 225 215 211 220 218 210 214 215 212 213 216 216 216 218 220 231 225 206 202 206 210 214 209 211 220 215 216 224 225 218 212 211 214 214 213 211 209 207 206 207 207 205 205 205
326 324 322 323 322 324 327 325 328 332 333 339 340 336 329 328 334 326 323 341 343 349 350 339 339 348 331 296 250 287 291 241 248 265 241 228 223 222 226 230 232 231 225 220 223 223 222 220 212 210 214 215 216 215 216 217 217 218 217 219 227 218 211 216 218 217 218 224 223 212 211 219 224 220 214 215 220 215 211 211 211 208 205 206 207 206 207 205
324 323 320 320 321 326 326 322 335 341 337 339 339 332 325 329 331 319 330 345 335 333 337 342 351 334 319 310 270 290 287 228 236 264 228 223 224 218 222 223 219 228 229 220 222 226 225 219 213 215 217 216 219 218 215 216 216 216 215 214 222 224 221 226 222 218 225 231 225 213 210 216 223 222 218 222 223 213 210 211 210 209 206 206 208 207 207 207
322 321 318 316 317 320 315 316 336 341 338 339 336 334 330 323 317 314 335 343 333 333 333 345 360 348 338 332 306 319 295 220 255 265 232 231 225 216 220 216 212 226 231 224 222 222 222 221 215 215 217 217 218 215 211 214 214 213 213 212 219 221 217 221 222 220 226 231 235 229 220 221 225 222 216 217 217 212 213 214 210 210 207 205 208 208 208 209
321 319 316 313 312 314 310 312 325 330 335 338 332 333 330 321 325 334 342 349 356 344 329 326 348 352 357 346 327 317 289 269 291 259 229 234 232 225 226 221 221 229 233 232 226 218 218 220 216 214 216 216 216 213 210 212 211 212 215 214 217 220 216 219 223 224 230 236 240 237 231 226 221 219 214 208 211 216 215 216 212 210 208 206 206 207 208 210
319 316 315 315 310 308 307 310 318 323 329 331 329 330 318 312 331 343 342 353 1 347 331 329 326 318 319 329 339 325 281 283 308 274 236 232 230 227 228 224 224 229 235 235 228 220 219 220 218 219 220 216 216 218 216 214 211 212 219 219 219 223 224 225 227 225 231 240 239 231 229 231 224 221 219 210 212 218 214 214 214 210 209 207 206 207 208 209
317 314 314 317 314 308 307 308 312 317 322 324 327 323 309 309 331 340 338 339 342 341 339 348 332 317 317 316 335 349 312 290 298 265 246 249 233 221 226 221 218 225 231 227 226 226 228 227 218 217 223 218 214 217 218 218 217 214 218 221 220 222 226 235 239 233 235 242 239 231 227 228 220 215 218 217 218 218 212 211 215 213 208 206 206 207 208 206
318 317 317 317 314 312 310 309 312 316 316 318 322 317 313 319 325 330 335 330 334 338 330 341 341 326 329 313 310 334 319 299 312 268 241 258 242 214 222 221 213 224 230 224 226 228 230 236 222 213 219 216 211 215 217 218 220 214 215 222 222 221 227 237 241 233 233 236 234 233 221 209 216 217 212 213 217 219 214 214 219 215 208 206 208 209 207 204
316 314 316 313 310 314 316 315 315 311 308 312 317 317 317 326 324 324 330 324 326 326 314 327 341 324 326 325 311 319 322 310 309 294 255 250 235 206 215 221 216 229 236 226 225 227 229 242 234 213 212 211 207 214 219 218 219 215 212 218 220 222 228 237 238 230 227 229 231 236 226 212 226 226 211 214 219 219 218 218 218 213 207 208 211 211 208 204
314 309 309 307 311 321 318 315 312 304 305 307 306 302 299 308 325 329 332 325 321 323 322 333 343 324 325 334 316 309 320 307 274 277 278 245 234 228 238 238 213 220 227 218 216 223 223 232 236 212 206 208 204 210 219 218 220 223 220 219 218 219 223 228 232 231 227 225 228 232 228 227 238 227 216 222 220 214 214 214 211 208 207 208 210 211 208 204
314 313 305 294 312 328 319 313 306 300 301 300 303 306 299 306 325 327 328 329 324 321 332 344 340 320 323 327 318 307 305 306 275 229 221 228 226 235 241 238 223 219 229 225 222 231 222 221 231 214 204 209 206 207 215 216 218 224 228 226 221 220 222 222 224 226 227 229 231 232 228 227 233 228 226 226 212 208 212 211 209 207 207 209 209 209 207 204
311 315 305 276 303 326 322 308 298 298 299 294 299 306 306 310 325 328 324 327 323 314 325 339 331 322 327 321 315 310 297 301 293 235 223 219 217 230 234 230 234 244 249 236 228 235 222 212 225 224 214 215 211 208 214 215 215 218 222 222 220 220 221 222 222 221 225 232 233 234 230 224 227 228 226 218 206 208 213 215 216 211 206 209 208 206 205 204
311 314 301 265 297 322 315 298 297 298 296 293 291 293 304 307 311 321 322 316 318 318 319 324 319 317 327 321 311 308 296 293 289 266 258 235 232 244 237 231 242 256 253 233 224 230 222 211 222 233 223 218 215 214 217 218 215 215 217 219 222 221 218 220 223 221 223 229 229 232 228 220 224 225 218 214 212 213 212 210 212 208 205 208 208 206 205 203
311 317 298 269 296 311 301 293 298 298 301 304 288 281 301 296 293 309 315 303 312 319 308 315 320 318 320 320 317 311 296 286 282 270 252 237 247 253 232 238 251 254 244 233 226 227 224 217 221 230 227 225 231 233 225 221 218 216 216 219 223 221 215 217 223 223 225 225 227 235 232 220 226 228 216 212 212 212 210 205 204 204 204 206 206 205 203 202
304 312 297 284 294 292 285 294 296 293 307 316 288 282 298 290 280 303 322 311 309 314 309 314 319 315 314 312 308 309 302 291 287 277 256 246 250 250 247 259 264 252 240 231 224 223 225 222 223 231 237 238 239 241 231 219 217 218 217 218 222 222 219 222 225 226 231 226 223 232 232 223 231 233 219 213 215 216 216 212 209 210 207 202 200 202 202 201
304 305 290 293 300 278 265 289 296 295 307 305 285 278 280 280 279 295 315 316 312 314 314 316 316 310 315 317 304 303 308 290 284 285 271 252 241 246 253 261 267 259 244 230 229 231 228 224 225 227 234 238 227 225 223 212 211 219 219 216 219 223 229 233 229 227 233 232 233 239 232 219 222 225 216 214 221 224 221 217 214 214 212 204 198 198 200 201
303 300 284 292 304 278 262 284 294 295 303 302 288 277 265 261 267 281 291 290 293 305 306 310 312 298 301 311 301 293 294 283 283 285 271 254 250 253 251 255 263 262 255 246 242 239 231 224 223 217 218 223 212 213 222 213 213 221 219 215 217 221 228 234 229 227 231 234 243 242 217 205 210 213 209 206 210 216 218 217 212 212 212 205 197 194 193 195
296 296 289 288 295 283 271 280 286 286 299 307 293 280 265 252 254 275 283 277 279 292 294 299 306 297 297 309 305 298 291 282 284 284 275 270 267 260 251 257 264 260 259 257 242 234 234 228 222 215 214 221 226 234 241 231 224 220 213 218 223 219 223 229 226 227 228 228 235 230 206 203 207 208 206 204 206 208 208 209 208 208 207 200 195 193 193 195
287 292 297 292 288 287 278 271 265 268 299 318 300 268 261 261 263 267 271 280 288 288 286 286 289 292 300 307 308 310 302 292 293 292 286 273 256 261 269 265 260 252 251 251 235 227 236 232 224 223 222 225 235 243 239 230 231 226 217 227 237 225 220 223 223 229 232 224 221 219 212 210 208 208 209 211 214 213 209 207 208 208 206 200 197 196 195 199
282 287 298 296 283 283 289 278 264 261 276 294 295 281 271 268 270 263 258 277 291 285 284 283 283 287 296 303 305 306 304 298 292 286 281 266 252 268 285 269 261 262 257 250 233 226 236 235 229 230 230 231 235 236 229 224 232 236 229 236 251 242 232 228 222 225 233 229 219 211 209 208 208 212 217 219 221 220 215 211 210 211 209 205 202 201 200 201
287 287 293 296 280 274 292 296 282 273 270 271 283 294 282 265 267 267 263 271 282 289 289 287 291 292 296 308 307 298 303 305 294 278 271 264 259 270 281 270 265 272 266 255 241 232 234 234 233 233 230 230 233 230 225 225 230 238 234 236 248 255 252 240 227 224 232 236 229 213 205 207 213 217 221 224 222 220 218 216 214 214 214 211 207 205 202 200
293 290 289 290 277 272 284 287 277 272 272 274 278 280 274 267 273 281 270 263 274 295 287 280 289 292 292 308 309 300 311 312 293 270 253 254 260 271 278 270 264 268 264 253 242 230 227 229 234 235 228 225 229 229 227 228 231 233 232 236 244 249 255 250 236 230 235 236 230 217 208 213 219 219 221 224 222 220 220 218 216 218 220 217 210 205 200 196
292 286 284 282 270 269 279 279 273 268 263 271 276 271 263 261 268 280 273 262 274 285 284 289 299 290 283 293 298 303 317 315 290 264 243 249 263 266 265 260 260 265 262 250 239 231 229 229 228 229 225 222 226 231 233 230 226 226 228 234 243 243 242 244 237 230 229 228 228 222 216 220 224 221 223 226 224 224 222 219 219 222 227 224 210 202 199 195
295 286 283 278 268 268 272 269 268 265 260 269 272 261 259 261 264 272 269 268 273 269 270 291 299 287 283 288 294 307 313 301 289 277 257 261 268 262 260 261 261 262 260 252 244 235 231 228 224 223 224 225 226 229 234 227 216 220 226 227 233 238 238 238 234 228 227 227 227 225 223 225 226 223 225 225 223 223 222 222 223 220 220 222 213 206 203 199